Location: *
(46.1866°N, 1.4710°E)
Time: 07:06:32
(UTC+00:00)

Daily predictions for brighter satellites

Satellite Brightness Start Highest point End
(mag) Time Altitude Azimuth Time Altitude Azimuth Time Altitude Azimuth
NOSS 2-1 (D) 4.3 16:39:13 10° NW 16:44:15 75° NE 16:51:22 10° SE
ADEOS Rocket 3.7 16:36:43 10° NNE 16:44:24 78° ESE 16:52:11 10° S
Cosmos 372 Rocket 4.0 16:40:24 10° NNW 16:45:35 88° WSW 16:50:46 10° SSE
Cosmos 405 2.9 16:42:14 10° S 16:45:42 70° E 16:49:12 10° NNE
Cosmos 1943 Rocket 3.8 16:43:03 10° N 16:45:56 14° NE 16:48:48 10° ENE
Cosmos 389 Rocket 4.3 16:44:46 10° ESE 16:46:33 14° E 16:48:21 10° ENE
H-2A R/B 2.5 16:46:26 10° SSE 16:50:48 76° ENE 16:55:00 10° N
BREEZE-M DEB (TANK) 1.7 16:48:24 10° WSW 16:50:53 66° SSE 16:52:59 10° ENE
Cosmos 2322 Rocket 4.2 16:46:42 10° W 16:50:57 21° NW 16:55:13 10° N
SL-16 R/B 3.8 16:50:15 10° SE 16:53:20 15° E 16:56:26 10° ENE
USA 215 3.9 16:48:39 10° ENE 16:54:49 42° SE 17:00:56 10° SSW
NOAA 6 4.1 16:50:12 10° SSE 16:55:23 89° ENE 17:00:34 10° NNW
Cosmos 1743 Rocket 3.6 16:51:07 10° N 16:55:37 71° E 17:00:02 10° SSE
COSMO-SKYMED 1 4.2 16:53:26 10° NE 16:56:02 15° E 16:58:36 10° SE
CZ-2C R/B 4.5 16:53:43 10° E 16:56:25 15° ENE 16:59:04 10° NNE
ATLAS 5 CENTAUR R/B 4.1 16:51:11 10° NW 16:56:35 40° WSW 17:02:43 10° S
Cosmos 2298 Rocket 4.0 16:51:53 10° NNW 16:57:13 73° ENE 17:02:30 10° SSE
Okean-O 4.3 16:55:40 10° E 16:57:41 13° ENE 16:59:43 10° NNE
PAYLOAD B 4.3 16:52:41 10° SSE 16:58:17 87° ENE 17:03:54 10° NNW
Cosmos 2150 Rocket 3.9 16:53:26 10° NNW 16:58:37 69° ENE 17:03:44 10° SSE
PSLV R/B 4.3 16:54:34 10° S 16:58:40 69° WSW 17:02:47 10° NNW
Cosmos 1818 3.6 16:54:21 10° NNW 16:59:49 66° NE 17:05:14 10° SE
Cosmos 1900 4.4 16:55:17 10° SSW 17:00:23 88° ESE 17:05:35 10° NE
Cosmos 1408 Rocket 4.5 16:56:56 10° NNW 17:01:13 53° W 17:05:26 10° S
AQUARIUS 4.3 16:57:07 10° SSE 17:01:29 53° ENE 17:05:53 10° N
Cosmos 1606 3.7 17:00:50 10° SSE 17:04:07 26° E 17:07:24 10° NNE
Sich 1 3.7 17:00:39 10° N 17:04:40 34° ENE 17:08:38 10° SE
BREEZE-M TANK 3.8 16:58:12 10° WNW 17:05:24 50° SSW 17:08:41 10° SE
Cosmos 1842 Rocket 4.0 17:03:59 10° SSW 17:08:16 64° W 17:12:35 10° N
Cosmos 2333 Rocket 3.0 17:02:55 10° SW 17:08:28 51° WNW 17:14:00 10° NNE
Okean O Rocket 1.6 17:04:12 10° SSE 17:08:29 64° ENE 17:12:49 10° N
ISS -3.6 17:07:39 10° SW 17:10:58 61° SSE 17:13:33 16° ENE
Radarsat Rocket 4.2 17:05:10 10° SSE 17:11:07 83° WSW 17:17:44 10° NNW
Nadezhda 1 Rocket 4.0 17:05:17 10° S 17:11:34 75° E 17:17:59 10° NNE
Cosmos 1125 Rocket 3.4 17:08:13 10° NNW 17:13:25 66° ENE 17:18:35 10° SSE
COSMOS 2428 3.3 17:08:17 10° SW 17:13:56 59° WNW 17:19:37 10° NNE
Cosmos 1356 4.2 17:11:21 10° N 17:14:24 29° ENE 17:17:25 10° SE
Cosmos 1805 Rocket 3.6 17:11:16 10° N 17:15:41 58° ENE 17:20:04 10° SSE
CZ-4B R/B 1.9 17:17:16 12° NE 17:19:45 33° E 17:22:36 10° SSE
Cosmos 2278 Rocket 2.4 17:14:53 10° NNW 17:20:35 80° WSW 17:26:16 10° SSE
Cosmos 1151 Rocket 4.2 17:18:11 10° SE 17:21:25 21° E 17:23:25 16° NE
Cosmos 1666 Rocket 4.2 17:17:49 10° N 17:21:49 33° ENE 17:25:49 10° SE
Cosmos 2154 Rocket 4.1 17:18:41 10° N 17:25:03 86° W 17:31:24 10° S
CRYOSAT 2 4.3 17:20:44 10° N 17:25:38 79° E 17:30:32 10° S
Cosmos 1862 3.8 17:21:45 10° NNW 17:25:46 64° W 17:29:43 10° S
Cosmos 962 Rocket 4.5 17:21:23 10° N 17:27:39 63° ENE 17:33:49 10° SSE
Lacrosse 5 rocket 3.0 17:25:52 10° SSE 17:27:40 13° SE 17:28:07 13° ESE
USA 267 3.4 17:21:51 10° ESE 17:28:11 56° NNE 17:34:33 10° NW
Cosmos 2360 Rocket 4.4 17:28:05 10° W 17:31:56 19° NW 17:35:50 10° N
ERS-2 2.3 17:29:45 11° NNE 17:33:09 48° E 17:36:41 10° S
NOSS 0 Rocket 4.1 17:27:34 10° SSW 17:33:49 80° WNW 17:40:06 10° NNE
Cosmos 2341 Rocket 4.0 17:27:45 10° N 17:34:00 63° ENE 17:40:15 10° SSE
SL-24 R/B - RUBIN 2 4.5 17:28:26 10° NW 17:34:46 78° WSW 17:40:22 10° SSE
NOAA 12 4.4 17:29:39 10° S 17:34:58 71° WSW 17:40:18 10° NNW
CZ-2D R/B 3.9 17:32:05 10° SE 17:35:29 32° ENE 17:38:55 10° N
CZ-4 R/B 2.3 17:38:23 25° ENE 17:38:49 26° ENE 17:42:09 10° N
Cosmos 2219 Rocket 3.6 17:34:28 10° WSW 17:39:36 34° NW 17:44:44 10° NNE
TELKOM 3 3.1 17:38:26 10° SW 17:41:08 60° SSE 17:41:32 49° ESE
H-2A R/B 3.0 17:37:28 10° N 17:41:27 47° WNW 17:45:30 10° SW
SMAP 3.9 17:37:44 10° S 17:42:17 54° W 17:46:52 10° NNW
BREEZE-M DEB (TANK) 1.8 17:40:28 10° SW 17:42:58 49° SSE 17:43:13 45° SE
CZ-4B R/B 3.9 17:38:16 10° S 17:43:31 56° W 17:48:45 10° NNW
SKYMED 2 3.8 17:40:45 13° NNE 17:44:29 45° E 17:48:39 10° S
USA 81 4.2 17:40:31 10° N 17:45:40 51° E 17:50:47 10° SSE
CREW DRAGON DEMO-1 DEB 3.0 17:44:25 10° WNW 17:47:21 48° NNE 17:47:43 44° NE
Cosmos 2237 Rocket 2.3 17:43:10 10° SSW 17:48:47 77° WNW 17:54:26 10° NNE
Cosmos 2285 Rocket 4.2 17:42:34 10° NNW 17:48:48 50° ENE 17:54:56 10° SE
NOAA 11 4.3 17:44:51 10° S 17:50:16 79° WSW 17:55:44 10° NNW
Cosmos 1939 Rocket 2.6 17:47:15 10° SSE 17:51:05 69° ENE 17:54:58 10° N
FengYun 1-2 T 4.5 17:46:54 10° S 17:52:27 72° WSW 17:57:59 10° NNW
Cosmos 1633 Rocket 3.1 17:48:18 10° N 17:52:38 55° ENE 17:56:54 10° SSE
H-2A R/B 2.8 17:52:26 24° E 17:54:21 31° ENE 17:58:52 10° N
SL-8 Rocket 3.9 17:51:58 10° N 17:58:12 73° E 18:04:27 10° SSE
Cosmos 2369 Rocket 3.1 17:57:12 10° N 18:02:03 28° NE 18:02:10 28° NE
CSL-04 Rocket 4.2 18:01:44 32° ENE 18:02:10 33° ENE 18:06:53 10° N
USA 281 3.1 17:55:50 10° SE 18:02:18 66° ENE 18:08:49 10° NNW
Cosmos 2181 Rocket 4.0 17:58:20 10° S 18:04:44 73° E 18:11:07 10° NNE
MOS 1 Rocket 4.0 18:03:47 29° NE 18:05:51 40° E 18:10:56 10° SSE
Abrixas rocket 4.5 18:04:59 10° W 18:06:56 17° SW 18:08:24 13° S
Cosmos 1980 4.4 18:01:31 10° SW 18:07:04 54° WNW 18:12:27 11° NNE
Cosmos 1959 Rocket 4.4 18:00:55 10° N 18:07:17 70° E 18:13:37 10° SSE
Cosmos 389 Rocket 3.9 18:17:43 10° SW 18:20:54 36° WNW 18:23:14 16° NNW
YAOGAN 1 2.4 18:21:23 63° E 18:21:36 64° ENE 18:25:55 10° N
Cosmos 1689 Rocket 4.1 18:25:21 21° SSW 18:25:21 21° SSW 18:26:30 10° SSW
SL-08 R/B 4.4 18:20:48 10° N 18:26:55 61° ENE 18:32:57 10° SSE
Cosmos 1933 3.8 18:23:22 10° SSW 18:27:20 60° W 18:29:42 23° N
Cosmos 2297 3.7 18:22:07 10° NNW 18:27:49 85° WSW 18:33:31 10° SSE
Cosmos 1470 Rocket 3.6 18:23:42 10° N 18:27:22 60° NNE 18:27:22 60° NNE
Cosmos 1943 Rocket 2.1 18:25:19 10° NNW 18:30:50 63° ENE 18:31:41 55° ESE
Cosmos 44 3.4 18:25:47 10° NW 18:31:06 83° NE 18:32:40 48° SE
Meteor 1-14 Rocket 4.2 18:25:26 10° N 18:31:20 67° ENE 18:37:18 10° SSE
COSMO-SKYMED 1 3.1 18:29:20 17° N 18:32:33 57° WNW 18:36:48 10° SSW
Okean-O 2.6 18:29:06 10° SSE 18:33:32 82° WSW 18:38:00 10° NNW
NOAA 15 4.5 18:29:13 10° SSE 18:34:31 87° ENE 18:39:51 10° NNW
CZ-2C R/B 2.9 18:30:31 10° SSE 18:35:42 85° WSW 18:40:40 10° NNW
Cosmos 1867 3.7 18:30:45 10° SW 18:36:10 72° NW 18:37:58 43° NNE
SL-16 R/B 2.1 18:30:59 10° SSW 18:36:38 86° WNW 18:38:47 40° NNE
ARGOS 3.8 18:38:31 38° NNE 18:38:31 38° NNE 18:42:05 10° N
PSLV R/B 4.1 18:36:53 62° NNW 18:37:20 69° WNW 18:41:21 10° SSW
USA 215 3.4 18:35:13 36° NE 18:38:04 70° NNW 18:44:33 10° WSW
Meteor 1-26 Rocket 4.4 18:35:53 10° SSW 18:41:54 84° W 18:47:59 10° N
Cosmos 2218 Rocket 4.4 18:37:55 10° NNW 18:43:59 63° W 18:50:01 10° S
Helios 1A Rocket 3.4 18:43:48 41° SSW 18:44:55 59° WSW 18:48:55 10° NNW
Cosmos 1782 4.4 18:41:25 10° SSW 18:43:16 27° SSW 18:43:16 27° SSW
ISS -1.6 18:44:44 10° W 18:46:31 25° WNW 18:46:31 25° WNW
CZ-4B R/B 4.3 18:50:24 11° NW 18:51:44 13° WNW 18:53:15 10° W
Cosmos 1151 Rocket 4.4 18:54:46 10° SW 18:58:44 36° WNW 19:00:19 27° NNW
Lacrosse 5 rocket 3.5 19:02:40 10° SW 19:03:47 19° SW 19:03:47 19° SW
USA 267 3.6 19:09:07 42° SSE 19:11:11 59° SW 19:17:38 10° WNW
CZ-4 R/B 3.4 19:14:25 27° WNW 19:14:25 27° WNW 19:17:14 10° NW
ATLAS CENTAUR R/B 4.3 19:04:45 10° NW 19:24:09 67° SW 19:27:27 42° SSE
H-2A R/B 3.3 19:33:04 39° WSW 19:33:38 40° W 19:38:34 10° NNW
Cosmos 2369 Rocket 3.7 19:40:52 10° NNW 19:43:59 32° NW 19:43:59 32° NW
Cosmos 1943 Rocket 4.4 20:10:02 10° NW 20:13:17 20° W 20:13:17 20° W
